AC0ZH Weather Reports


Display with metric or nautical units.
time (UTC)temp
F
wind
direction
speed
MPH
gust
MPH
rain 1hr
in
rain 24hr
in
rain mn
in
humidity
%
barometer
mb
20260502190004 66 8.0 15.0 0.00 1.91 0.00 42 1011.8
20260502185500 66 10.0 17.0 0.00 1.91 0.00 41 1012.2
20260502185000 66 10.0 17.0 0.00 1.91 0.00 41 1012.2
20260502184500 66 9.0 15.0 0.00 1.91 0.00 42 1012.2
20260502184000 66 9.0 15.0 0.00 1.91 0.00 42 1012.2
20260502183000 66 9.0 15.0 0.00 1.91 0.00 41 1012.2
20260502182500 66 9.0 15.0 0.00 1.91 0.00 42 1012.5
20260502182000 65 9.0 15.0 0.00 1.91 0.00 42 1012.5
20260502181500 65 8.0 15.0 0.00 1.91 0.00 43 1012.5
20260502180500 64 8.0 15.0 0.00 1.91 0.00 43 1013.2
20260502170500 61 9.0 16.0 0.00 1.91 0.00 47 1013.5
20260502164000 59 9.0 15.0 0.00 1.91 0.00 49 1013.5
20260502162500 58 9.0 15.0 0.00 1.91 0.00 48 1013.9
20260502161500 58 8.0 15.0 0.00 1.91 0.00 47 1013.9
20260502161000 58 8.0 15.0 0.00 1.91 0.00 47 1013.9
20260502160500 58 8.0 15.0 0.00 1.91 0.00 48 1014.2
20260502152001 55 8.0 14.0 0.00 1.91 0.00 51 1014.6
20260502151500 54 7.0 14.0 0.00 1.91 0.00 52 1014.6
20260502151000 54 7.0 14.0 0.00 1.91 0.00 52 1014.6
20260502150500 53 7.0 14.0 0.00 1.91 0.00 53 1014.9
20260502130500 43 3.0 7.0 0.00 1.91 0.00 61 1012.5
20260502123500 40 3.0 6.0 0.00 1.91 0.00 62 1016.6
20260502123000 40 3.0 6.0 0.00 1.91 0.00 62 1016.6
20260502122500 40 3.0 6.0 0.00 1.91 0.00 62 1016.6
20260502122000 40 3.0 6.0 0.00 1.91 0.00 63 1016.6
20260502121500 40 3.0 5.0 0.00 1.91 0.00 63 1016.6
20260502121000 39 3.0 5.0 0.00 1.91 0.00 63 1016.6
20260502120501 39 3.0 5.0 0.00 1.91 0.00 63 1016.6
20260502115000 39 3.0 5.0 0.00 1.91 0.00 64 1016.6
20260502114500 38 3.0 6.0 0.00 1.91 0.00 64 1016.9
20260502114000 38 3.0 6.0 0.00 1.91 0.00 64 1016.9
20260502113500 38 4.0 8.0 0.00 1.91 0.00 64 1017.3
20260502112500 38 5.0 8.0 0.00 1.91 0.00 65 1017.3
20260502112000 38 5.0 8.0 0.00 1.91 0.00 65 1017.3
20260502111500 38 3.0 5.0 0.00 1.91 0.00 65 1017.3
20260502110500 37 3.0 5.0 0.00 1.91 0.00 65 1014.9
20260502110000 37 3.0 5.0 0.00 1.91 0.00 65 1014.9
20260502105500 37 3.0 5.0 0.00 1.91 0.00 65 1017.3
20260502104500 38 3.0 5.0 0.00 1.91 0.00 64 1017.3
20260502104001 38 3.0 5.0 0.00 1.91 0.00 64 1017.3
20260502103501 38 3.0 5.0 0.00 1.91 0.00 64 1017.6
20260502102500 37 3.0 5.0 0.00 1.91 0.00 64 1017.6
20260502102000 37 3.0 5.0 0.00 1.91 0.00 64 1017.6
20260502101500 37 3.0 5.0 0.00 1.91 0.00 64 1015.9
20260502101000 37 3.0 5.0 0.00 1.91 0.00 65 1015.9
20260502100500 37 3.0 5.0 0.00 1.91 0.00 66 1017.6
20260502091001 37 3.0 4.0 0.00 1.91 0.00 64 1017.6
20260502090500 37 3.0 4.0 0.00 1.91 0.00 64 1017.6
20260502070500 36 2.0 3.0 0.00 1.91 0.00 57 1018.3
20260502065500 37 2.0 3.0 0.00 1.91 0.00 57 1018.3
20260502065000 37 2.0 3.0 0.00 1.91 0.00 56 1018.3
20260502064501 37 2.0 3.0 0.00 1.91 0.00 56 1018.3
20260502063500 37 2.0 3.0 0.00 1.91 0.00 54 1018.3
20260502063000 37 2.0 3.0 0.00 1.91 0.00 54 1018.3
20260502062500 37 2.0 3.0 0.00 1.91 0.00 54 1018.3
20260502062000 38 2.0 3.0 0.00 1.91 0.00 53 1018.3
20260502061500 39 2.0 3.0 0.00 1.91 0.00 53 1018.3
20260502061000 39 2.0 3.0 0.00 1.91 0.00 51 1018.3
20260502060500 39 2.0 3.0 0.00 1.91 0.00 51 1018.3
20260502060000 39 2.0 3.0 0.00 1.91 0.00 51 1018.3
20260502054500 39 2.0 3.0 0.00 1.91 0.00 49 1018.3
20260502053500 39 3.0 4.0 0.00 1.91 0.00 47 1018.3
20260502052500 39 4.0 6.0 0.00 1.91 0.00 46 1018.3
20260502052000 40 4.0 6.0 0.00 1.91 0.00 45 1018.3
20260502051500 40 3.0 4.0 0.00 1.91 0.00 45 1018.3
20260502051000 40 3.0 4.0 0.00 1.91 0.00 44 1018.3
20260502050500 40 3.0 4.0 0.00 1.91 0.00 44 1018.6
20260502050000 40 3.0 4.0 0.00 1.91 0.00 44 1018.6
20260502045500 40 3.0 4.0 0.00 1.91 0.00 43 1018.6
20260502045000 40 3.0 4.0 0.00 1.91 0.00 43 1018.6
20260502044001 41 3.0 3.0 0.00 1.91 0.00 42 1018.6
20260502043000 42 3.0 4.0 0.00 1.91 0.00 42 1018.6
20260502041000 43 3.0 5.0 0.00 1.91 0.00 42 1018.6
20260502040500 43 3.0 5.0 0.00 1.91 0.00 42 1018.6
20260502035500 43 4.0 5.0 0.00 1.91 0.00 42 1018.6
20260502035000 43 4.0 5.0 0.00 1.91 0.00 42 1018.6
20260502034500 43 5.0 6.0 0.00 1.91 0.00 42 1018.6
20260502034000 43 5.0 6.0 0.00 1.91 0.00 42 1018.6
20260502033000 44 5.0 6.0 0.00 1.91 0.00 42 1018.6
20260502032500 45 5.0 7.0 0.00 1.91 0.00 42 1018.6
20260502031500 45 5.0 7.0 0.00 1.91 0.00 42 1019.3
20260502030500 46 5.0 7.0 0.00 1.91 0.00 42 1019.3
20260502025500 47 5.0 8.0 0.00 1.91 0.00 41 1018.3
20260502023500 47 5.0 8.0 0.00 1.91 0.00 41 1018.3
20260502023000 48 5.0 8.0 0.00 1.91 0.00 41 1018.3
20260502022500 48 5.0 8.0 0.00 1.91 0.00 40 1018.3
20260502022000 48 5.0 8.0 0.00 1.91 0.00 40 1019.6
20260502021500 48 5.0 8.0 0.00 1.91 0.00 40 1019.6
20260502020001 49 5.0 8.0 0.00 1.91 0.00 40 1018.3
20260502015500 49 6.0 9.0 0.00 1.91 0.00 39 1018.3
20260502015001 50 6.0 9.0 0.00 1.91 0.00 39 1018.3
20260502014500 50 6.0 9.0 0.00 1.91 0.00 38 1018.3
20260502014000 50 6.0 9.0 0.00 1.91 0.00 38 1018.3
20260502013500 51 6.0 10.0 0.00 1.91 0.00 37 1018.0
20260502013000 51 6.0 10.0 0.00 1.91 0.00 37 1018.0
20260502012500 51 6.0 10.0 0.00 1.91 0.00 37 1018.0
20260502011500 52 6.0 10.0 0.00 1.91 0.00 35 1018.0
20260502011000 52 6.0 10.0 0.00 1.91 0.00 34 1018.0
20260502010500 53 6.0 10.0 0.00 1.91 0.00 34 1020.0
20260502010000 53 6.0 10.0 0.00 1.91 0.00 34 1020.0
20260502005500 53 6.0 10.0 0.00 1.91 0.00 34 1018.0
20260502004500 54 6.0 9.0 0.00 1.91 0.00 34 1018.0
20260502004000 54 6.0 9.0 0.00 1.91 0.00 33 1018.0
20260502003000 54 6.0 10.0 0.00 1.91 0.00 33 1018.0
20260502002000 55 6.0 9.0 0.00 1.91 0.00 33 1017.6
20260502001501 55 6.0 10.0 0.00 1.91 0.00 33 1020.3
20260502001000 55 6.0 10.0 0.00 1.91 0.00 33 1020.3
20260502000500 55 6.0 10.0 0.00 1.91 0.00 33 1017.6
20260502000000 55 6.0 10.0 0.00 1.91 0.00 33 1017.6
20260501235500 56 6.0 10.0 0.00 1.91 0.00 33 1017.6
20260501234501 56 6.0 10.0 0.00 1.91 0.00 33 1018.0
20260501234001 56 6.0 10.0 0.00 1.91 0.00 32 1018.0
20260501233500 56 6.0 9.0 0.00 1.91 0.00 32 1018.0
20260501233000 56 6.0 9.0 0.00 1.91 0.00 32 1018.0
20260501232500 56 6.0 11.0 0.00 1.91 0.00 31 1020.7
20260501232000 56 6.0 11.0 0.00 1.91 0.00 31 1020.7
20260501231000 55 6.0 11.0 0.00 1.91 0.00 32 1020.7
20260501230000 56 6.0 11.0 0.00 1.91 0.00 31 1018.0
20260501225500 56 7.0 11.0 0.00 1.91 0.00 31 1018.0
20260501225000 57 7.0 11.0 0.00 1.91 0.00 31 1018.0
20260501224000 57 7.0 11.0 0.00 1.91 0.00 32 1018.0
20260501223500 57 6.0 11.0 0.00 1.91 0.00 32 1018.3
20260501223000 57 6.0 11.0 0.00 1.91 0.00 32 1018.3
20260501222500 57 6.0 10.0 0.00 1.91 0.00 32 1018.3
20260501222000 57 6.0 10.0 0.00 1.91 0.00 31 1018.3
20260501221500 57 6.0 10.0 0.00 1.91 0.00 31 1018.3
20260501221001 57 6.0 10.0 0.00 1.91 0.00 31 1018.3
20260501220000 57 6.0 10.0 0.00 1.91 0.00 31 1018.0
20260501215500 58 6.0 10.0 0.00 1.91 0.00 31 1018.0
20260501215000 58 6.0 10.0 0.00 1.91 0.00 31 1018.0
20260501214500 59 6.0 10.0 0.00 1.91 0.00 31 1018.0
20260501213500 60 6.0 10.0 0.00 1.91 0.00 31 1018.0
20260501213000 60 6.0 10.0 0.00 1.91 0.00 30 1018.0
20260501212501 60 6.0 10.0 0.00 1.91 0.00 31 1018.3
20260501212000 59 6.0 10.0 0.00 1.91 0.00 31 1018.3
20260501211500 59 6.0 10.0 0.00 1.91 0.00 31 1020.0
20260501211000 59 6.0 10.0 0.00 1.91 0.00 32 1020.0
20260501210500 59 6.0 10.0 0.00 1.91 0.00 31 1018.3
20260501205000 56 6.0 10.0 0.00 1.91 0.00 32 1018.3
20260501204500 57 6.0 10.0 0.00 1.91 0.00 32 1018.6
20260501204000 58 6.0 10.0 0.00 1.91 0.00 32 1018.6
20260501203500 59 5.0 10.0 0.00 1.91 0.00 33 1019.6
20260501203000 59 5.0 10.0 0.00 1.91 0.00 32 1019.6
20260501202501 58 5.0 9.0 0.00 1.91 0.00 32 1018.6
20260501202000 58 5.0 9.0 0.00 1.91 0.00 31 1018.6
20260501201000 58 5.0 9.0 0.00 1.91 0.00 32 1019.6
20260501200501 58 5.0 9.0 0.00 1.91 0.00 33 1019.6
20260501200000 58 5.0 9.0 0.00 1.91 0.00 33 1019.6
20260501195000 58 5.0 9.0 0.00 1.91 0.00 33 1018.6
20260501194500 56 5.0 9.0 0.00 1.91 0.00 33 1018.6
20260501194000 57 5.0 9.0 0.00 1.91 0.00 33 1018.6
20260501193500 57 6.0 9.0 0.00 1.91 0.00 33 1019.6
20260501193000 57 6.0 9.0 0.00 1.91 0.00 35 1019.6
20260501192500 56 6.0 9.0 0.00 1.91 0.00 34 1018.6
20260501192000 56 6.0 9.0 0.00 1.91 0.00 34 1018.6
20260501191500 56 5.0 10.0 0.00 1.91 0.00 35 1019.6
20260501191000 56 5.0 10.0 0.00 1.91 0.00 35 1019.6